Orbital elements of SL-12 R/B(2)
| Launched | 13 June 1980 |
| Flight ended | – |
| Launch site | Tyuratam Missile and Space Center, Kazakhstan (Also known as Baikonur Cosmodrome) |
| Owner | Commonwealth of Independent States (former USSR) |
| NORAD ID | 11862 |
| Date fetched |
Epoch osculation |
Inc. [°] |
Ecc. | RA asc node [hr] |
Arg Peri. [°] |
Mean anom [°] |
Mean motion [rev/day] |
Abs. mag |
| Date fetched |
Epoch osculation |
Inc. [°] |
Ecc. | RA asc node [hr] |
Arg Peri. [°] |
Mean anom [°] |
Mean motion [rev/day] |
Abs. mag |
| 2026 May 05 17:57 | 2026 May 05 04:42:38 | 7.7531 | 0.00274 | 19.7658 | 215.2705 | 147.9913 | 0.97941 | – |
| 2026 May 04 17:57 | 2026 Apr 30 13:36:27 | 7.7644 | 0.00274 | 19.7682 | 215.1385 | 147.9913 | 0.97941 | – |
| 2026 May 03 17:57 | 2026 Apr 30 13:36:27 | 7.7644 | 0.00274 | 19.7682 | 215.1385 | 147.9913 | 0.97941 | – |
| 2026 May 02 17:57 | 2026 Apr 30 13:36:27 | 7.7644 | 0.00274 | 19.7682 | 215.1385 | 147.9913 | 0.97941 | – |
| 2026 May 01 17:56 | 2026 Apr 30 13:36:27 | 7.7644 | 0.00274 | 19.7682 | 215.1385 | 147.9913 | 0.97941 | – |
| 2026 Apr 30 17:56 | 2026 Apr 30 13:36:27 | 7.7644 | 0.00274 | 19.7682 | 215.1385 | 147.9913 | 0.97941 | – |
| 2026 Apr 29 17:57 | 2026 Apr 24 12:23:45 | 7.7788 | 0.00274 | 19.7714 | 214.9380 | 147.9913 | 0.97941 | – |
| 2026 Apr 28 17:56 | 2026 Apr 24 12:23:45 | 7.7788 | 0.00274 | 19.7714 | 214.9380 | 147.9913 | 0.97941 | – |
| 2026 Apr 27 17:58 | 2026 Apr 24 12:23:45 | 7.7788 | 0.00274 | 19.7714 | 214.9380 | 147.9913 | 0.97941 | – |
| 2026 Apr 26 17:58 | 2026 Apr 24 12:23:45 | 7.7788 | 0.00274 | 19.7714 | 214.9380 | 147.9913 | 0.97941 | – |
| 2026 Apr 25 17:58 | 2026 Apr 24 12:23:45 | 7.7788 | 0.00274 | 19.7714 | 214.9380 | 147.9913 | 0.97941 | – |
| 2026 Apr 24 17:59 | 2026 Apr 24 12:23:45 | 7.7788 | 0.00274 | 19.7714 | 214.9380 | 147.9913 | 0.97941 | – |
| 2026 Apr 23 17:57 | 2026 Apr 19 09:23:23 | 7.7907 | 0.00273 | 19.7741 | 214.8766 | 147.9913 | 0.97941 | – |
| 2026 Apr 22 17:57 | 2026 Apr 19 09:23:23 | 7.7907 | 0.00273 | 19.7741 | 214.8766 | 147.9913 | 0.97941 | – |
| 2026 Apr 21 17:57 | 2026 Apr 19 09:23:23 | 7.7907 | 0.00273 | 19.7741 | 214.8766 | 147.9913 | 0.97941 | – |
| 2026 Apr 20 17:57 | 2026 Apr 19 09:23:23 | 7.7907 | 0.00273 | 19.7741 | 214.8766 | 147.9913 | 0.97941 | – |
| 2026 Apr 19 17:58 | 2026 Apr 19 09:23:23 | 7.7907 | 0.00273 | 19.7741 | 214.8766 | 147.9913 | 0.97941 | – |
| 2026 Apr 18 17:56 | 2026 Apr 13 04:45:34 | 7.8053 | 0.00272 | 19.7774 | 214.9657 | 147.9913 | 0.97941 | – |
| 2026 Apr 16 17:57 | 2026 Apr 13 04:45:34 | 7.8053 | 0.00272 | 19.7774 | 214.9657 | 147.9913 | 0.97941 | – |
| 2026 Apr 14 17:57 | 2026 Apr 13 04:45:34 | 7.8053 | 0.00272 | 19.7774 | 214.9657 | 147.9913 | 0.97941 | – |
| 2026 Apr 13 17:57 | 2026 Apr 13 04:45:34 | 7.8053 | 0.00272 | 19.7774 | 214.9657 | 147.9913 | 0.97941 | – |
| 2026 Apr 12 17:57 | 2026 Apr 08 13:42:56 | 7.8163 | 0.00271 | 19.7798 | 215.0015 | 147.9913 | 0.97941 | – |
| 2026 Apr 11 17:57 | 2026 Apr 08 13:42:56 | 7.8163 | 0.00271 | 19.7798 | 215.0015 | 147.9913 | 0.97941 | – |
| 2026 Apr 10 17:58 | 2026 Apr 08 13:42:56 | 7.8163 | 0.00271 | 19.7798 | 215.0015 | 147.9913 | 0.97941 | – |
| 2026 Apr 09 18:01 | 2026 Apr 08 13:42:56 | 7.8163 | 0.00271 | 19.7798 | 215.0015 | 147.9913 | 0.97941 | – |
| 2026 Apr 08 17:57 | 2026 Apr 08 13:42:56 | 7.8163 | 0.00271 | 19.7798 | 215.0015 | 147.9913 | 0.97941 | – |